This is the latest recevied weather packets stored in our database for station/object OE-11331. If no packets are shown the sender has not sent any weather packets the latest 10 day(s).
| Time | Temp. | Humidity | Pressure | Rain* | Wind** | Luminosity | Snow |
|---|---|---|---|---|---|---|---|
| 1787731906 | 19.44° C | 78% | 1018.5 hPa | 0 mm | - | 422 W/m² | - |
| 1787731533 | 18.89° C | 81% | 1018.6 hPa | 0 mm | - | 498 W/m² | - |
| 1787730933 | 19.44° C | 80% | 1018.6 hPa | 0 mm | - | 520 W/m² | - |
| 1787730106 | 18.89° C | 79% | 1018.8 hPa | 0 mm | - | 476 W/m² | - |
| 1787729733 | 18.89° C | 82% | 1018.6 hPa | 0 mm | - | 303 W/m² | - |
| 1787729133 | 18.33° C | 83% | 1018.7 hPa | 0 mm | - | 292 W/m² | - |
| 1787728305 | 18.33° C | 83% | 1018.7 hPa | 0 mm | - | 292 W/m² | - |
| 1787727933 | 17.78° C | 85% | 1018.7 hPa | 0 mm | - | 216 W/m² | - |
| 1787727333 | 17.78° C | 86% | 1018.7 hPa | 0 mm | - | 152 W/m² | - |
| 1787726744 | 17.22° C | 88% | 1018.6 hPa | 0 mm | - | 162 W/m² | - |
| 1787726133 | 17.22° C | 88% | 1018.7 hPa | 0 mm | - | 130 W/m² | - |
| 1787725534 | 17.22° C | 89% | 1018.6 hPa | 0 mm | - | 119 W/m² | - |
| 1787724706 | 16.67° C | 91% | 1018.5 hPa | 0 mm | - | 87 W/m² | - |
| 1787724334 | 16.67° C | 91% | 1018.7 hPa | 0 mm | - | 87 W/m² | - |
| 1787723733 | 16.67° C | 91% | 1018.7 hPa | 0 mm | - | 119 W/m² | - |
| 1787722906 | 16.67° C | 89% | 1018.5 hPa | 0 mm | - | 152 W/m² | - |
| 1787722534 | 16.67° C | 93% | 1018.5 hPa | 0 mm | - | 119 W/m² | - |
| 1787721934 | 16.11° C | 94% | 1018.4 hPa | 0 mm | - | 43 W/m² | - |
| 1787721106 | 16.11° C | 94% | 1018.2 hPa | 0 mm | - | 54 W/m² | - |
| 1787720734 | 16.11° C | 94% | 1018.2 hPa | 0 mm | - | 43 W/m² | - |
| 1787720134 | 16.11° C | 94% | 1018.1 hPa | 0 mm | - | 22 W/m² | - |
| 1787719307 | 16.67° C | 94% | 1018 hPa | 0 mm | - | 11 W/m² | - |
| 1787718934 | 16.67° C | 94% | 1018 hPa | 0 mm | - | 11 W/m² | - |
| 1787718333 | 17.22° C | 94% | 1017.9 hPa | 0 mm | - | 0 W/m² | - |
| 1787717506 | 17.22° C | 94% | 1017.8 hPa | 0 mm | - | 0 W/m² | - |
* Rain latest hour (hover to see other rain measurements)
** Current wind speed in m/s (hover to see current wind gust speed)